Date,TemperatureHighF,TemperatureAvgF,TemperatureLowF,DewpointHighF,DewpointAvgF,DewpointLowF,HumidityHigh,HumidityAvg,HumidityLow,PressureMaxIn,PressureMinIn,WindSpeedMaxMPH,WindSpeedAvgMPH,GustSpeedMaxMPH,PrecipitationSumIn
2013-3-1,59.0,41.3,28.0,20.0,13.7,7.0,69,38,13,0.00,40.00,4,2,14,0.00
2013-3-2,62.0,41.4,24.0,26.0,16.7,7.0,76,44,12,0.00,40.00,5,1,12,0.00
2013-3-3,52.0,42.2,33.0,32.0,22.2,11.0,87,47,24,0.00,40.00,10,5,25,0.00
2013-3-4,58.0,38.9,26.0,32.0,28.3,10.0,97,71,16,0.00,40.00,7,2,14,0.00
2013-3-5,55.0,37.9,25.0,35.0,24.6,16.0,91,63,24,0.00,40.00,7,2,16,0.00
2013-3-6,50.0,37.3,29.0,29.0,21.9,7.0,91,59,18,0.00,40.00,8,2,16,0.00
2013-3-7,43.0,32.4,26.0,32.0,28.2,24.0,100,86,63,0.00,40.00,8,2,16,0.00
2013-3-8,32.0,28.0,25.0,29.0,25.0,20.0,100,89,62,0.00,40.00,8,3,24,0.00
2013-3-9,47.0,32.4,23.0,29.0,23.9,16.0,99,74,41,0.00,40.00,6,2,28,0.39
2013-3-10,53.0,38.7,26.0,19.0,12.0,-4.0,69,38,10,0.00,40.00,6,2,25,0.01
2013-3-11,64.0,40.4,22.0,22.0,13.1,1.0,79,43,10,0.00,40.00,5,2,16,0.00
2013-3-12,66.0,43.6,27.0,27.0,19.5,12.0,84,49,13,0.00,40.00,5,2,12,0.00
2013-3-13,71.0,45.4,29.0,33.0,21.1,14.0,84,51,11,0.00,40.00,4,2,14,0.00
2013-3-14,73.0,47.9,31.0,33.0,23.4,16.0,79,48,12,0.00,40.00,6,1,11,0.00
2013-3-15,69.0,48.8,33.0,34.0,23.2,8.0,81,47,9,0.00,40.00,6,2,12,0.00
2013-3-16,67.0,49.6,33.0,30.0,18.4,9.0,69,34,11,0.00,40.00,5,2,14,0.00
2013-3-17,66.0,45.5,33.0,24.0,12.6,-37.0,55,30,1,0.00,40.00,7,2,16,0.00
2013-3-18,62.0,44.7,28.0,21.0,14.1,6.0,56,33,12,0.00,40.00,7,2,14,0.00
2013-3-19,63.0,46.4,36.0,34.0,23.3,15.0,71,43,22,0.00,40.00,8,2,15,0.00
2013-3-20,57.0,45.8,35.0,35.0,29.9,23.0,78,57,28,0.00,40.00,6,3,14,0.00
2013-3-21,65.0,42.3,33.0,34.0,21.6,-4.0,81,51,7,0.00,40.00,6,1,14,0.00
2013-3-22,61.0,44.5,29.0,28.0,7.4,-6.0,71,26,7,0.00,40.00,7,3,18,0.00
2013-3-23,61.0,40.0,23.0,27.0,12.0,2.0,70,36,11,0.00,40.00,6,2,15,0.00
2013-3-24,61.0,43.0,29.0,24.0,15.9,8.0,65,39,13,0.00,40.00,6,3,13,0.00
2013-3-25,63.0,43.7,27.0,26.0,16.1,7.0,68,39,12,0.00,40.00,6,2,16,0.00
2013-3-26,60.0,44.9,31.0,32.0,17.9,-4.0,72,42,8,0.00,40.00,6,2,13,0.00
2013-3-27,54.0,42.9,33.0,32.0,28.0,24.0,79,58,37,0.00,40.00,10,3,21,0.00
2013-3-28,59.0,49.8,35.0,38.0,29.9,26.0,78,50,29,0.00,40.00,8,4,16,0.00
2013-3-29,64.0,45.3,28.0,35.0,28.8,20.0,94,61,18,0.00,40.00,6,2,14,0.00
2013-3-30,61.0,47.5,36.0,37.0,28.4,-99.9,83,54,24,0.00,40.00,5,1,11,0.00
2013-3-31,54.0,42.4,33.0,38.0,32.2,28.0,92,70,36,0.00,40.00,7,2,16,0.00